Regional Weather Roundup
Issued by NWS Upton, NY

Current Version | Previous Version | Graphics & Text | Print | Product List | Glossary Off
Versions: 1 2 3 4 5 6 7 8 9 10 11 12 13 14 15 16 17 18 19 20 21 22 23 24 25 26 27 28 29 30 31 32 33 34 35 36 37 38 39 40 41 42 43 44 45 46 47 48 49 50

085
ASUS41 KOKX 221108
RWROKX

REGIONAL WEATHER ROUNDUP
NATIONAL WEATHER SERVICE NEW YORK NY
700 AM EDT FRI MAY 22 2015

NOTE: "FAIR" INDICATES FEW OR NO CLOUDS BELOW 12,000 FEET WITH NO
SIGNIFICANT WEATHER AND/OR OBSTRUCTIONS TO VISIBILITY.

NYZ071-072-176-178-NJZ106-104-221200-
NEW YORK CITY METRO AREA


CITY           SKY/WX    TMP DP  RH WIND       PRES   REMARKS
CENTRAL PARK   SUNNY     56  42  59 CALM      29.93R
LAGUARDIA APRT MOSUNNY   57  44  62 NW12      29.90R
KENNEDY INTL   MOSUNNY   58  42  55 NW10      29.90R
NEWARK/LIBERTY MOSUNNY   56  45  66 W8        29.91R
BRNX BOT. GARD   N/A     55  43  62 W3        29.90F
TETERBORO      SUNNY     56  43  61 NW5       29.90R
$$

NYZ177-179-078>081-221200-
LONG ISLAND NEW YORK

CITY           SKY/WX    TMP DP  RH WIND       PRES   REMARKS
FARMINGDALE    MOSUNNY   56  45  66 NW6       29.89R
ISLIP          PTSUNNY   54  49  83 NW7       29.86R
SHIRLEY        MOSUNNY   53  49  86 NW7       29.88R
WESTHAMPTON    CLOUDY    51  48  89 NW6       29.87R
MONTAUK POINT    N/A     52  50  93 NW3       29.86S
$$

NYZ052-065-067-221200-
HUDSON VALLEY

CITY           SKY/WX    TMP DP  RH WIND       PRES   REMARKS
WHITE PLAINS   SUNNY     54  44  69 NW10      29.88R
NEWBURGH       SUNNY     50  46  87 W6        29.90S
MONTGOMERY     SUNNY     51  47  86 W6        29.89R
POUGHKEEPSIE   SUNNY     52  47  83 CALM      29.88R
ALBANY         MOSUNNY   53  39  59 S3        29.87R
$$

NJZ001-105-106-008-010-013-015-019>022-104-221200-
NEW JERSEY

CITY           SKY/WX    TMP DP  RH WIND       PRES   REMARKS
NEWARK/LIBERTY MOSUNNY   56  45  66 W8        29.91R
TETERBORO      SUNNY     56  43  61 NW5       29.90R
CALDWELL       SUNNY     53  43  68 SW3       29.92R
MORRISTOWN     SUNNY     54  45  71 CALM      29.92R
SOMERVILLE     SUNNY     51  44  77 W5        29.92R
SUSSEX         SUNNY     48  44  86 CALM      29.92R
ANDOVER          N/A     47  46  97 CALM      29.93R
TRENTON        SUNNY     51  45  79 NW7       29.93R
MILLVILLE      SUNNY     52  48  86 NW9       29.97R
ATLANTIC CITY  SUNNY     50  47  89 NW9       29.95R FOG
WRIGHTSTOWN    SUNNY     51  47  85 NW8       29.92R
TOMS RIVER     SUNNY     50  46  87 NW8       29.94R
BELMAR         SUNNY     52  43  71 NW7       29.92R
$$

PAZ047>061-062-071-221200-
EASTERN PENNSYLVANIA

CITY           SKY/WX    TMP DP  RH WIND       PRES   REMARKS
PHILADELPHIA   SUNNY     53  44  71 W10       29.97R
ALLENTOWN      SUNNY     51  42  71 W8        29.95R
SCRANTON       SUNNY     49  41  74 SW6       29.95R
$$

CTZ002-004>006-009-010-012-RIZ004-006-007-MAZ004-011-015-221200-
SOUTHERN NEW ENGLAND
 IN CT

CITY           SKY/WX    TMP DP  RH WIND       PRES   REMARKS
BRADLEY INTL   PTSUNNY   57  43  59 CALM      29.84S
HARTFORD       MOSUNNY   54  47  77 SE8       29.85S
DANBURY        SUNNY     54  41  61 W5        29.89R
WTRBRY/OXFORD  MOSUNNY   52  41  66 N5        29.88R
BRIDGEPORT     PTSUNNY   56  45  66 NW5       29.87R
MERIDEN        PTSUNNY   54  46  74 CALM      29.86R
NEW HAVEN      PTSUNNY   54  46  74 N6        29.86R
CHESTER        FAIR      52  46  82 N8        29.86R
GROTON         CLOUDY    52  49  89 NW3       29.84S
WILLIMANTIC    SUNNY     52  45  77 CALM      29.85R

 IN RI

CITY           SKY/WX    TMP DP  RH WIND       PRES   REMARKS
PROVIDENCE     PTSUNNY   52  47  83 W3        29.83S
BLOCK ISLAND   PTSUNNY   50  46  87 W5        29.85S
WESTERLY       CLOUDY    51  48  89 CALM      29.85R

 IN MA

CITY           SKY/WX    TMP DP  RH WIND       PRES   REMARKS
BOSTON         CLOUDY    54  43  66 W8        29.83S
WORCESTER      PTSUNNY   52  38  58 NW12      29.83S
WESTFIELD      MOSUNNY   56  43  61 N3        29.85R
PROVINCETOWN   CLOUDY    52  46  82 S7        29.85S
NANTUCKET      LGT RAIN  48  47  96 NE3       29.84R
$$

ANZ330-335-338-340-345-350-353-355-221200-
COASTAL MARINE OBSERVATIONS


STATION/POSITION TIME  SKY/WX   TEMP    WIND        PRES    VSBY  WAVE
                                AIR SEA DIR/SP/G                  HT/PER
                 (UTC)          (F)     (DEG/KT/KT) (MB)    (MI)  (FT/S)
NY HARB ENTRANCE 1050            56 56  300/ 16/ 17 1011.8          2/ 3
4S FIRE IS       1003               53                N/A           1/ 8
20S FIRE ISLAND  1050            56 54  320/ 14/ 17 1011.4          2/ 8
GREAT SOUTH BAY  1000            54 62  330/ 10/ 10   N/A
23SW MTP         1050            51 53  310/  8/  8 1010.8          1/ 8
HUDSON CANYON    NOT AVBL
KINGS POINT      1000            56 53  350/  7/ 11 1011.1
CENTRAL LI SOUND 1000            53 52  280/  8/  8   N/A
EASTERN LI SOUND 1000            50     280/  6/  8   N/A
ROBBINS REEF     1000            56     310/  9/ 12 1011.1
$$


>>>>>>>>>>>>>>>>>>>>>>>>>>>> KEY <<<<<<<<<<<<<<<<<<<<<<<<<<<
>                                                          <
>     SKY/WX - SKY CONDITION/PRESENT WEATHER               <
>     TMP    - TEMPERATURE IN FAHRENHEIT                   <
>     DP     - DEWPOINT IN FAHRENHEIT                      <
>     RH     - RELATIVE HUMIDITY IN PERCENT                <
>     WIND   - DIRECTION AND SPEED IN MPH                  <
>     PRES   - MEAN SEA LEVEL PRESSURE IN INCHES OF HG     <
>     WCI    - WIND CHILL INDEX                            <
>     VSB    - VISIBILITY IN MILES                         <
>     HX     - HEAT INDEX                                  <
>     TC     - TEMPERATURE IN CELSIUS                      <
>     VRB    - VARIABLE WIND DIRECTION                     <
>                                                          <
>>>>>>>>>>>>>>>>>>>>>>>>>>>> KEY <<<<<<<<<<<<<<<<<<<<<<<<<<<





USA.gov is the U.S. government's official web portal to all federal, state and local government web resources and services.